Regional Weather Roundup
Issued by NWS

Home | Current Version | Previous Version | Text Only | Print | Product List | Glossary Off
Versions: 1 2 3 4 5 6 7 8 9 10 11 12 13 14 15 16 17 18 19 20 21 22 23 24 25 26 27 28 29 30 31 32 33 34 35 36 37 38 39 40 41 42 43 44 45 46 47 48 49 50

000
ASUS43 KLOT 280013
RWRIL

ILLINOIS REGIONAL WEATHER ROUNDUP
NATIONAL WEATHER SERVICE CHICAGO/ROMEOVILLE IL
700 PM CDT THU AUG 27 2015

NOTE: "FAIR" INDICATES FEW OR NO CLOUDS BELOW 12,000 FEET WITH NO
SIGNIFICANT WEATHER AND/OR OBSTRUCTIONS TO VISIBILITY.

* THESE STATIONS ARE NOT UNDER NWS QUALITY CONTROL. THEY ALSO MAY NOT
  REPORT WEATHER SUCH AS PRECIPITATION OR FOG.

ILZ001-002-007-009-015-016-024-280100-
NORTHWEST ILLINOIS

CITY           SKY/WX    TMP DP  RH WIND       PRES   REMARKS
MOLINE         PTCLDY    70  60  70 SE7       30.06F
6HR MIN TEMP:  70; 6HR MAX TEMP:  75;

STERLING*      MOCLDY    70  57  64 CALM      30.08F
SAVANNA*       MOCLDY    70  59  68 E6        30.07F
$$

ILZ003-004-008-010-011-017-018-280100-
NORTH CENTRAL ILLINOIS

CITY           SKY/WX    TMP DP  RH WIND       PRES   REMARKS
ROCKFORD       CLOUDY    69  57  65 SE6       30.13F
6HR MIN TEMP:  69; 6HR MAX TEMP:  74;

FREEPORT*      MOCLDY    67  59  76 SE3       30.13F
ROCHELLE*      MOCLDY    68  59  73 CALM      30.12F
DE KALB*       MOCLDY    65  58  77 S3        30.13F
PERU*          PTCLDY    72  56  57 SE7       30.11F
$$

ILZ005-006-012>014-019>023-280100-
NORTHEAST ILLINOIS

CITY           SKY/WX    TMP DP  RH WIND       PRES   REMARKS
CHICAGO-OHARE  MOCLDY    69  52  54 E13       30.12F
6HR MIN TEMP:  69; 6HR MAX TEMP:  76;

CHICAGO-MIDWAY MOCLDY    70  55  59 E10       30.12F
6HR MIN TEMP:  70; 6HR MAX TEMP:  75;

AURORA         MOCLDY    68  58  70 SW3       30.13F
6HR MIN TEMP:  68; 6HR MAX TEMP:  74;

LANSING*       PTCLDY    68  56  65 CALM      30.13F
JOLIET*        CLOUDY    69  58  68 CALM      30.12F
WAUKEGAN       PTCLDY    64  56  75 SE6       30.12F
6HR MIN TEMP:  64; 6HR MAX TEMP:  70;

DUPAGE AIRPORT MOCLDY    69  56  62 SW8       30.12S
6HR MIN TEMP:  69; 6HR MAX TEMP:  75;

KANKAKEE*      CLOUDY    70  60  69 CALM      30.12F
WHEELING       PTCLDY    68  51  54 E7        30.14S
6HR MIN TEMP:  68; 6HR MAX TEMP:  74;

MORRIS*        MOCLDY    67  58  74 E5        30.11F
ROMEOVILLE*    CLOUDY    68  55  63 S5        30.12F
NORTHERLY ISL    N/A     66  57  72 E5          N/A
$$

LMZ740>746-280100-
SOUTHERN LAKE MICHIGAN

STATION/POSITION SKY/WX   TEMP    WIND        PRES    VSBY  WAVE
                          AIR SEA DIR/SP/G                  HT/PER
                          (F)     (DEG/KT/KT) (MB)    (MI)  (FT/S)
SOUTHERN BUOY              66 68  180/  6/  6 1020.6F         0
WILMETTE HARBOR            66 64  300/  6/  8   N/A           1/ 2
HARRISON CRIB              66     100/  8/  9   N/A
BURNHAM HARBOR             66      90/  4/  6   N/A
CALUMET HARBOR             67      50/  7/  8   N/A
BURNS HARBOR               70      60/  5/  6 1021.3R
MICHIGAN CITY              69     350/  3/  4   N/A
MICHIGAN CITY 6N           67 71  100/  4/  6   N/A           0
ST. JOSEPH                 66 71   20/  2/  4   N/A           0
$$

ILZ025>027-034>036-040-047-049-050-058-095>099-280100-
WEST-CENTRAL ILLINOIS

CITY           SKY/WX    TMP DP  RH WIND       PRES   REMARKS
QUINCY         MOCLDY    71  59  65 E6        30.07S
GALESBURG*     PTCLDY    68  59  73 E3        30.09F
MACOMB*        PTCLDY    69  60  74 SE3       30.11S
JACKSONVILLE*  PTCLDY    74  60  61 SE3       30.08S
PITTSFIELD*    MOCLDY    71  60  68 CALM      30.09F
$$

ILZ028>032-037-038-041>044-048-051>054-059>061-280100-
CENTRAL ILLINOIS

CITY           SKY/WX    TMP DP  RH WIND       PRES   REMARKS
PONTIAC        MOCLDY    71  63  75 CALM      30.12F
BLOOMINGTON    CLEAR     73  60  63 CALM      30.12F
DECATUR        PTCLDY    74  59  59 SE3       30.10F
PEORIA         CLEAR     74  57  55 E5        30.09F
6HR MIN TEMP:  73; 6HR MAX TEMP:  77;

LACON*         PTCLDY    70  59  67 SE3       30.09F
LINCOLN*       PTCLDY    75  57  54 CALM      30.09F
SPRINGFIELD    PTCLDY    74  57  55 E6        30.09F
6HR MIN TEMP:  74; 6HR MAX TEMP:  79;

TAYLORVILLE    PTCLDY    72  61  68 SE3       30.09F
$$

ILZ033-039-045-046-055>057-062-063-280100-
EAST-CENTRAL ILLINOIS

CITY           SKY/WX    TMP DP  RH WIND       PRES   REMARKS
CHAMPAIGN      PTCLDY    73  60  63 NE6       30.11F
RANTOUL*       MOCLDY    75  60  60 CALM      30.11S
MATTOON        CLEAR     72  59  63 CALM      30.10F
PARIS*         PTCLDY    74  66  75 CALM      30.10F
$$

ILZ079-100>102-280100-
SOUTHWEST ILLINOIS

CITY           SKY/WX    TMP DP  RH WIND       PRES   REMARKS
BELLEVILLE     CLEAR     73  63  69 E2        30.07F
CAHOKIA*       PTCLDY    74  60  61 E6        30.07F
SPARTA*        PTCLDY    73  61  68 CALM      30.09F
$$

ILZ064>066-069>071-074>076-080>082-084>086-088>090-092>094-280100-
SOUTH-CENTRAL ILLINOIS

CITY           SKY/WX    TMP DP  RH WIND       PRES   REMARKS
CARBONDALE     CLEAR     74  62  66 CALM      30.08F
6HR MIN TEMP:  74; 6HR MAX TEMP:  81;

CAIRO*         CLEAR     73  64  74 NE3       30.07F
EFFINGHAM*     PTCLDY    73  62  69 CALM      30.11F
MARION         CLEAR     73  63  68 CALM      30.09F
MT. VERNON     PTCLDY    73  59  60 CALM      30.10F
CENTRALIA*     PTCLDY    73  60  62 CALM      30.08F
SALEM*         PTCLDY    74  63  69 CALM      30.09F
METROPOLIS*    CLEAR     76  64  66 CALM      30.08F
$$

ILZ067-068-072-073-078-083-087-091-280100-
SOUTHEAST ILLINOIS

CITY           SKY/WX    TMP DP  RH WIND       PRES   REMARKS
LAWRENCEVILLE  CLEAR     78  59  51 CALM      30.10F
FLORA*         CLEAR     74  58  55 CALM      30.10F
FAIRFIELD*     PTCLDY    72  61  67 CALM      30.08F
HARRISBURG*    PTCLDY    76  62  61 CALM      30.08F
ROBINSON*      CLEAR     76  62  60 CALM      30.11S
CARMI*         PTCLDY    73  64  73 CALM      30.08F
$$

ABBREVIATIONS USED IN REMARKS
   TC - TEMPERATURE IN CELSIUS
  WCI - WIND CHILL INDEX
   HX - HEAT INDEX
  VSB - VISIBILITY
$$




USA.gov is the U.S. government's official web portal to all federal, state and local government web resources and services.